INTELSAT 34 (IS-34) (40874 NORAD) Tracking and Keplerian Element Data

This shows tracking and keplerian element data for the satellite.

Feedback or suggestion? Click here.




ElementValue
Catalog40874
NameINTELSAT 34 (IS-34)
Epoch Orbit2598
Epoch Day269.73132461
Epoch Year2022
RAAN292.7109
Inclination0.0466
Eccentricity4.53E-05
Argument of Perigee129.3638
Mean Anonmoly151.2492
Mean Motion1.00272748
Decay Rate-2.83E-06
L11 40874U 15039A 22269.73132461 -.00000283 00000+0 00000+0 0 9991
L22 40874 0.0466 292.7109 0000453 129.3638 151.2492 1.00272748 25984

Live tracking and technical data element details for INTELSAT 34 (IS-34) (NORAD 40874). INTELSAT 34 (IS-34) can be tracked NOW for your location showing map with azimuth and elevation plus other details from your city location.

Track the satellite on the map from your city or location and see movement details for azimuth, elevation, latitude, longitude, range, height, and movement on the map or in text.







IsCatalogInMostPopularTable: catalog: 40874, numindb: 649
Update: records affected: 1



GetName: 40874 INTELSAT 34 (IS-34)

Hit Count: updated at: Wed, 28 Sep 2022 22:15:53 GMT